Cheektowaga, NY

8:17 AM EDT on August 26, 2016 (GMT -0400)
Buffalo Niagara International

Weather History for KBUF - September, 2012

Change the Weather History Date:

Sunday, September 30, 2012

  Actual Average Record
Temperature  
Mean Temperature 56 °F 57 °F  
Max Temperature 61 °F 66 °F 85 °F (1905)
Min Temperature 51 °F 48 °F 32 °F (1991)
Degree Days  
Heating Degree Days 9 9  
Month to date heating degree days 124 127  
Since 1 July heating degree days 125 154  
Cooling Degree Days 0 1  
Month to date cooling degree days 78 54  
Year to date cooling degree days 871 541  
Growing Degree Days 6 (Base 50)    
Moisture  
Dew Point 46 °F    
Average Humidity 69    
Maximum Humidity 89    
Minimum Humidity 49    
Precipitation  
Precipitation 0.09 in 0.14 in 2.25 in (1959)
Month to date precipitation 4.39 3.76  
Year to date precipitation 21.13 28.92  
Snow  
Snow 0.00 in 0.00 in 0.00 in ()
Month to date snowfall 0.0 0.0  
Since 1 July snowfall 0.0 0.0  
Since 1 September snowfall 0.0 0.0  
Snow Depth 0.00 in    
Sea Level Pressure  
Sea Level Pressure 29.90 in    
Wind  
Wind Speed 5 mph (NNW)    
Max Wind Speed 13 mph    
Max Gust Speed 16 mph    
Visibility 10 miles    
Events Rain    
T = Trace of Precipitation, MM = Missing Value Source: NWS Daily Summary

Daily Weather History Graph

Daily Weather History Graph

Search for Another Location

Airport or City:

Trip Planner

Search our weather history database for the weather conditions in past years. The results will help you decide how hot, cold, wet, or windy it might be!

Date:

Astronomy

Sep. 30, 2012 Rise Set
Actual Time 7:11 AM EDT 6:57 PM EDT
Civil Twilight 6:43 AM EDT 7:25 PM EDT
Nautical Twilight 6:10 AM EDT 7:58 PM EDT
Astronomical Twilight 5:37 AM EDT 8:31 PM EDT
Moon 6:57 PM EDT (9/30) 7:42 AM EDT (9/30)
Length of Visible Light 12h 41m
Length of Day
11h 45m
Full, 100% of the Moon is Illuminated
Sep 30
Full
Oct 8
Last Quarter
Oct 15
New
Oct 21
First Quarter
Oct 29
Full

Hourly Weather History & Observations

Time (EDT) Temp. Dew Point Humidity Pressure Visibility Wind Dir Wind Speed Gust Speed Precip Events Conditions
12:54 AM 53.1 °F 46.0 °F 77% 29.94 in 10.0 mi NE 9.2 mph - 0.00 in Rain Light Rain
1:54 AM 52.0 °F 46.9 °F 83% 29.94 in 10.0 mi NNE 6.9 mph - 0.00 in Rain Light Rain
2:54 AM 52.0 °F 46.9 °F 83% 29.92 in 10.0 mi Calm Calm - 0.00 in Rain Light Rain
3:54 AM 51.1 °F 46.9 °F 86% 29.93 in 10.0 mi ESE 3.5 mph - 0.00 in Rain Light Rain
4:54 AM 51.1 °F 46.9 °F 86% 29.93 in 10.0 mi SSE 3.5 mph - 0.00 in Rain Light Rain
5:54 AM 51.1 °F 46.9 °F 86% 29.93 in 10.0 mi Calm Calm - 0.00 in Rain Light Rain
6:54 AM 51.1 °F 48.0 °F 89% 29.92 in 10.0 mi Calm Calm - 0.01 in Rain Light Rain
7:54 AM 52.0 °F 48.9 °F 89% 29.93 in 10.0 mi Calm Calm - 0.00 in Rain Light Rain
8:13 AM 51.8 °F 48.2 °F 88% 29.92 in 10.0 mi Calm Calm - 0.00 in Rain Light Rain
8:54 AM 51.1 °F 46.9 °F 86% 29.93 in 5.0 mi North 6.9 mph - 0.05 in Rain Rain
9:06 AM 51.8 °F 46.4 °F 82% 29.92 in 5.0 mi Calm Calm - 0.01 in Rain Rain
9:54 AM 53.1 °F 46.9 °F 80% 29.92 in 10.0 mi Calm Calm - 0.03 in   Mostly Cloudy
10:54 AM 55.9 °F 46.9 °F 72% 29.92 in 10.0 mi Variable 4.6 mph - N/A   Mostly Cloudy
11:54 AM 59.0 °F 46.9 °F 64% 29.90 in 10.0 mi Variable 4.6 mph - N/A   Mostly Cloudy
12:54 PM 57.0 °F 46.9 °F 69% 29.91 in 10.0 mi North 4.6 mph - N/A   Mostly Cloudy
1:54 PM 61.0 °F 46.0 °F 58% 29.89 in 10.0 mi NNE 3.5 mph - N/A   Mostly Cloudy
2:54 PM 59.0 °F 44.1 °F 58% 29.88 in 10.0 mi North 6.9 mph - N/A   Mostly Cloudy
3:54 PM 57.9 °F 45.0 °F 62% 29.87 in 10.0 mi NNW 9.2 mph - N/A   Mostly Cloudy
4:54 PM 60.1 °F 41.0 °F 49% 29.86 in 10.0 mi NNW 10.4 mph - N/A   Mostly Cloudy
5:54 PM 59.0 °F 43.0 °F 55% 29.87 in 10.0 mi NNW 10.4 mph - N/A   Mostly Cloudy
6:54 PM 57.9 °F 43.0 °F 58% 29.87 in 10.0 mi NW 5.8 mph - N/A   Mostly Cloudy
7:54 PM 57.0 °F 43.0 °F 59% 29.88 in 10.0 mi West 4.6 mph - N/A   Mostly Cloudy
8:54 PM 57.0 °F 44.1 °F 62% 29.87 in 10.0 mi West 5.8 mph - N/A   Mostly Cloudy
9:54 PM 57.0 °F 44.1 °F 62% 29.88 in 10.0 mi West 5.8 mph - N/A   Mostly Cloudy
10:54 PM 55.9 °F 45.0 °F 67% 29.88 in 10.0 mi NW 9.2 mph - N/A   Mostly Cloudy
11:54 PM 55.9 °F 46.0 °F 69% 29.88 in 10.0 mi WNW 5.8 mph - N/A   Mostly Cloudy